Location: Bednik
(45.3500°N, 16.3833°E)
Time: 08:22:55
(UTC+00:00)

Cosmos 1190 Rocket - Pass Details

Date: 08 August 2020
Orbit: 756 x 780 km, 74.1° (Epoch: 26 September)

Event Time Altitude Azimuth Distance (km) Brightness Sun altitude
Rises 20:14:43 0° 209° (SSW) 3,227 7.0 -18.3°
Reaches altitude 10° 20:17:06 10° 213° (SSW) 2,308 6.3 -18.6°
Maximum altitude 20:22:18 62° 294° (WNW) 869 4.5 -19.2°
Drops below altitude 10° 20:27:34 10° 15° (NNE) 2,338 7.0 -19.8°
Sets 20:30:00 0° 19° (NNE) 3,272 7.7 -20.0°
